Simultaneous Nadir Overpasses (SNOs) Predictions

Prediction of SNOs between FY3D and TERRA Satellite Orbit:

Table of predicted SNOs for the next 14.0 days since TLE Epoch: 10/12/2024
Index Date (FY3D) Time (FY3D) Lat,Lon (FY3D) SZA (FY3D ) Date (TERRA) Time (TERRA) Lat,Lon (TERRA) SZA (TERRA ) Distance(km) Time Diff (sec)
1 10/13/2024 04:25:14 76.39, 113.87 84.29 10/13/2024 04:25:42 76.36, 113.86 84.26 3.12 28
2 10/13/2024 05:15:58 -76.35, -78.65 95.74 10/13/2024 05:15:05 -76.32, -78.62 95.77 2.95 53
3 10/15/2024 15:37:52 76.40, -54.24 85.21 10/15/2024 15:38:14 76.38, -54.28 85.19 2.35 22
4 10/15/2024 16:28:36 -76.35, 113.25 94.83 10/15/2024 16:27:37 -76.33, 113.25 94.85 1.59 59
5 10/18/2024 02:50:30 76.42, 137.55 86.14 10/18/2024 02:50:43 76.42, 137.71 86.14 4.02 13
6 10/18/2024 03:41:13 -76.33, -54.78 93.94 10/18/2024 03:40:07 -76.33, -54.93 93.95 3.77 66
7 10/20/2024 14:03:06 76.39, -30.41 86.99 10/20/2024 14:03:11 76.41, -30.50 87.01 3.26 5
8 10/20/2024 14:53:48 -76.25, 137.42 93.13 10/20/2024 14:52:35 -76.31, 136.86 93.08 16.49 73
9 10/23/2024 00:25:04 -76.69, -6.98 91.87 10/23/2024 00:26:15 -76.54, -5.88 91.99 32.63 71
10 10/23/2024 01:15:43 76.42, 161.37 87.90 10/23/2024 01:15:36 76.43, 161.42 87.90 1.56 7
11 10/25/2024 11:37:35 -76.48,-174.27 91.21 10/25/2024 11:38:39 -76.50,-174.16 91.18 3.45 64
12 10/25/2024 12:28:19 76.43, -6.78 88.77 10/25/2024 12:27:59 76.43, -6.70 88.76 2.21 20



Historial Predications of SNOs between FY3D and TERRA
